Weather Roundup
Issued by NWS Chicago, IL

Home | Current Version | Previous Version | Text Only | Print | Product List | Glossary On
Versions: 1 2 3 4 5 6 7 8 9 10 11 12 13 14 15 16 17 18 19 20 21 22 23 24 25 26 27 28 29 30 31 32 33 34 35 36 37 38 39 40 41 42 43 44 45 46 47 48 49 50
000
NZUS59 KLOT 050409
HRRLOT

CHICAGO AREA WEATHER ROUNDUP
NATIONAL WEATHER SERVICE CHICAGO/ROMEOVILLE IL
1100 PM CDT FRI SEP 04 2015

NOTE: "FAIR" INDICATES FEW OR NO CLOUDS BELOW 12,000 FEET WITH NO
SIGNIFICANT WEATHER AND/OR OBSTRUCTIONS TO VISIBILITY.

* THESE STATIONS ARE NOT UNDER NWS QUALITY CONTROL. THEY ALSO MAY NOT
  REPORT WEATHER SUCH AS PRECIPITATION OR FOG.

ILZ005-006-012>014-019>023-050500-
NORTHEAST ILLINOIS

CITY           SKY/WX    TMP DP  RH WIND       PRES   REMARKS
OHARE          PTCLDY    72  67  84 E6        30.06S
MIDWAY         CLOUDY    75  66  73 E7        30.06S
AURORA         MOCLDY    72  67  84 SE8       30.07R
LANSING*       CLEAR     69  68  96 CALM      30.07R FOG
JOLIET*        CLEAR     73  69  86 CALM      30.06F
WAUKEGAN       PTCLDY    66  66 100 CALM      30.06S
DUPAGE AIRPORT CLEAR     71  66  84 E5        30.05F
WHEELING       NOT AVBL
KANKAKEE*      CLEAR     70  68  93 CALM      30.06F
MORRIS*        CLEAR     72  69  90 E6        30.04F
LEWIS AIRPORT* CLEAR     70  65  85 E3        30.06S
NORTHERLY IS     N/A     71  68  90 NE2         N/A
$$

WIZ051-052-058>065-066-070>072-050500-
SOUTHEAST WISCONSIN

CITY           SKY/WX    TMP DP  RH WIND       PRES   REMARKS
MILWAUKEE      FOG       66  65  96 S5        30.06S VSB 1/2
KENOSHA*       CLOUDY    69  66  90 S6        30.07S
RACINE*        CLOUDY    68  65  90 S3        30.08S
BURLINGTON     CLOUDY    65  64  96 SE3       30.06F FOG
WAUKESHA       CLEAR     64  63  94 E3        30.08S
WEST BEND      FOG       63  63 100 CALM      30.07F VSB 1/4
$$

INZ001>003-010>013-019-020-050500-
NORTHWEST INDIANA

CITY           SKY/WX    TMP DP  RH WIND       PRES   REMARKS
GARY*          CLEAR     71  68  92 CALM      30.07S
MICHIGAN CITY* NOT AVBL
RENSSELAER*    NOT AVBL
VALPARAISO     CLEAR     70  68  93 CALM      30.08R
$$

LMZ740>746-050500-
SOUTHERN LAKE MICHIGAN

STATION/POSITION TIME  SKY/WX   TEMP WIND        PRES    VSBY
                                AIR  DIR/SP/G
                 (UTC)          (F)  (DEG/KT/KT) (MB)    (MI)
HARRISON CRIB    0300            71   90/  5/  6   N/A
BURNHAM HARBOR   0400            71  100/  2/  4   N/A
CALUMET HARBOR   0300            72   60/  4/  5   N/A
BURNS HARBOR     0300            72   80/  5/  7 1018.3R
MICHIGAN CITY    0300            71   40/  4/  5   N/A
$$

ABBREVIATIONS USED IN REMARKS
   TC - TEMPERATURE IN CELSIUS
  WCI - WIND CHILL INDEX
   HX - HEAT INDEX
  VSB - VISIBILITY
$$


USA.gov is the U.S. government's official web portal to all federal, state and local government web resources and services.